STARLINK-34997, 65418

Orbit data source: Space-Track

STARLINK-34997, 65418 is a payload satellite owned by SpaceX/Seattle (US) in LEO that was launched on Sun, 31 Aug 2025 UTC via an FALCON 9 launch vehicle from the Air Force Eastern Test Range (AFETR). Payload-class satellites include a variety of spacecraft equipped with specific instruments for various scientific and technological missions. These include communications satellites like Starlink; space stations such as the ISS; scientific satellites like the Hubble; Earth observation satellites from companies like Planet Labs, Umbra, and HawkEye 360; GPS; miniature CubeSats for education and research; and military/defense satellites.

Loading next visibility...
Identifier
65418, 2025-192Q
Orbit
LEO
Country
Flag of USUS
Related business
Manufacturer
SpaceX/Seattle
Mission
Operational Commercial Communications
Bus & Motor
STARLINK V2MO, Unknown motor
Mass
575 kg wet, ~530 kg dry
Launch date (UTC)
2025-08-31 (10 months ago)
Launch vehicle
FALCON 9
Launch site
Air Force Eastern Test Range (AFETR)
Object type
Payload
Rocket body
Debris
Shape & HBR
Box + 2 Pan, 17.7 m
Radar Cross Section
36.964 m², Large (>1 m²)

Expand to show TLE details & history
Last TLE update: 1 day ago

TLE from 1 day ago
0 STARLINK-34997
1 65418U 25192Q   26170.57859700  .00006197  00000-0  22134-3 0  9998
2 65418  53.1610 119.1022 0001314  93.2836 266.8315 15.30177374 44982
Epoch: 2026-06-19T13:53Z
TLE epoch observation values (Epoch: 2026-06-19T13:53:10.780Z)
Latitude
-0.00005°
Longitude
3.00169°
Altitude
476.232 km
Speed
7.629 km/s
True Right ascension
07h 56m 24s
True Declination
0° 00' 00"
Sunlit
Object was in daylight at epoch
Visualization orbit readout
Latitude
Unknown
Longitude
Unknown
Altitude
Unknown
Speed
Unknown
Apparent Right ascension
Unknown
Apparent Declination
Unknown
Sunlit
N/A
Visualization observer readout
Local Sidereal Time
07:16:35
Azimuth
Unknown
Elevation
Unknown
Doppler factor
Unknown
Orbital elements
Apogee altitude
476.439 km
Perigee altitude
474.638 km
Semi-major axis
6,853.676 km
Eccentricity
0.00013
Inclination
53.161°
RAAN
119.1022°
Arg. of periapsis
93.2836°
True anomaly
266.81647°
Mean anomaly
266.8315°
Eccentric anomaly
266.82398°
Mean motion
3.82523 °/min
Orbital period
94.11 mins
BSTAR
0.00022134
Loading maneuver chart data...
Computing Atmospheric mass density...
Loading historical data...
Loading historical data...
Loading historical data...
Loading historical data...
Loading historical data...
Loading historical data...
Loading historical data...

Documentation

Showing up to 5 results
|